Location: Cambiling Island
(10.0167°N, 126.0000°E)
Time: 01:54:53
(UTC+00:00)

Daily predictions for brighter satellites

Satellite Brightness Start Highest point End
(mag) Time Altitude Azimuth Time Altitude Azimuth Time Altitude Azimuth
STARLINK 1025 4.4 09:38:31 10° S 09:40:41 19° ESE 09:42:52 10° ENE
STARLINK 1017 4.4 09:38:42 10° S 09:40:53 19° ESE 09:43:04 10° ENE
STARLINK 1023 4.4 09:38:54 10° S 09:41:05 19° ESE 09:43:17 10° ENE
STARLINK 1007 4.4 09:39:09 10° S 09:41:21 20° ESE 09:43:32 10° ENE
STARLINK 1048 4.4 09:39:19 10° S 09:41:32 20° ESE 09:43:45 10° ENE
Meteor 2-4 Rocket 3.9 09:35:40 10° S 09:41:36 87° W 09:47:28 10° N
STARLINK 1049 4.4 09:39:35 10° S 09:41:47 20° ESE 09:44:00 10° ENE
STARLINK 1051 4.4 09:39:48 10° S 09:42:02 20° ESE 09:44:15 10° ENE
STARLINK 1037 4.3 09:39:59 10° S 09:42:14 20° ESE 09:44:28 10° ENE
STARLINK 1059 4.3 09:40:12 10° S 09:42:26 20° ESE 09:44:41 10° ENE
STARLINK 1057 4.3 09:40:24 10° S 09:42:39 20° ESE 09:44:54 10° ENE
STARLINK 1052 4.3 09:40:39 10° S 09:42:55 21° ESE 09:45:12 10° ENE
Okean-O 2.7 09:38:39 10° SSE 09:43:00 59° ENE 09:47:20 10° N
STARLINK 1068 4.3 09:40:53 10° S 09:43:09 21° ESE 09:45:26 10° ENE
STARLINK 1029 4.3 09:41:04 10° S 09:43:21 21° ESE 09:45:38 10° ENE
STARLINK 1060 4.3 09:41:17 10° S 09:43:35 21° ESE 09:45:52 10° ENE
STARLINK 1040 4.1 09:41:24 10° S 09:43:49 24° ESE 09:46:13 10° ENE
STARLINK 1030 4.3 09:41:35 10° S 09:43:51 21° ESE 09:46:08 10° ENE
STARLINK 1020 4.3 09:41:42 10° S 09:44:00 21° ESE 09:46:20 10° ENE
STARLINK 1034 4.2 09:41:55 10° S 09:44:13 21° ESE 09:46:32 10° ENE
STARLINK 1033 4.2 09:42:22 10° S 09:44:41 22° ESE 09:47:02 10° ENE
STARLINK 1031 4.2 09:42:34 10° S 09:44:55 22° ESE 09:47:16 10° ENE
STARLINK 1024 4.2 09:42:48 10° S 09:45:08 22° ESE 09:47:26 10° ENE
FALCON 9 DEB 2.2 09:43:00 10° SSW 09:45:15 53° ESE 09:47:29 10° NE
STARLINK 1035 4.2 09:43:00 10° S 09:45:22 22° ESE 09:47:42 10° ENE
STARLINK 1032 4.2 09:43:14 10° S 09:45:36 23° ESE 09:47:55 10° ENE
STARLINK 1011 4.2 09:43:27 10° S 09:45:47 23° ESE 09:48:05 10° ENE
STARLINK 1036 4.1 09:43:41 10° S 09:46:04 23° ESE 09:48:23 10° ENE
STARLINK 1047 4.1 09:44:06 10° S 09:46:30 23° ESE 09:48:48 11° ENE
COSMO-SKYMED 1 3.8 09:43:47 10° N 09:47:54 45° WNW 09:52:02 10° SSW
ATLAS 5 CENTAUR R/B 1.4 09:46:22 10° WNW 09:49:25 77° NNE 09:59:12 10° ESE
S3M 4.3 09:44:35 10° NNE 09:50:19 42° E 09:56:02 10° SSE
ISS -1.1 09:48:10 10° WNW 09:51:00 26° SW 09:53:52 10° S
H-2A R/B (2) 4.0 09:46:29 10° SSW 09:51:21 44° SE 10:11:19 14° ENE
Cosmos 921 Rocket 3.6 09:49:04 10° NNW 09:53:26 65° W 09:57:51 10° S
FALCON 9 DEB 2.0 09:51:28 10° SW 09:53:46 90° SSE 09:55:46 12° NE
Cosmos 1743 3.4 09:50:30 10° NNW 09:54:18 59° W 09:58:08 10° S
STARLINK 1044 3.4 09:53:13 10° SSW 09:55:53 37° SE 09:57:55 15° ENE
Cosmos 1553 Rocket 4.0 09:53:41 10° N 10:00:05 79° E 10:06:28 10° S
STARLINK 1038 4.4 09:57:48 10° S 10:01:07 30° ESE 10:03:22 17° ENE
FUSE 4.0 09:58:04 10° WNW 10:03:28 81° SSW 10:08:49 10° ESE
STARLINK 1046 4.2 10:01:28 10° S 10:04:52 34° ESE 10:06:59 19° ENE
H-2A R/B 4.5 09:02:56 10° WNW 10:06:47 73° NNE 10:14:07 10° ESE
ARIANE 42L R/B 4.2 09:55:34 10° W 10:07:50 48° S 10:11:13 11° ESE
STARLINK 1039 4.0 10:05:08 10° SSW 10:08:38 38° ESE 10:10:37 21° ENE
STARLINK 1045 3.9 10:07:45 10° SSW 10:11:18 42° SE 10:13:12 23° ENE
Cosmos 1867 3.8 10:07:05 10° N 10:12:11 43° ENE 10:17:16 10° SE
CZ-3C R/B 4.2 01:17:47 10° WSW 10:13:22 71° NNW 10:23:11 19° ENE
Haruka 2.9 10:18:13 10° SW 10:22:47 48° SSE 10:24:12 28° E
ARIANE 5 DEB (SYLDA) 4.4 10:19:21 10° WSW 10:23:44 28° S 10:29:25 10° ESE
YAOGAN 6 3.7 10:21:47 10° S 10:25:08 44° W 10:28:31 10° NNW
NOAA 11 4.4 10:20:06 10° SSE 10:25:16 45° ENE 10:30:26 10° N
Cosmos 2151 Rocket 3.5 10:23:09 10° N 10:27:31 89° W 10:31:56 10° S
Cosmos 405 Rocket 3.0 10:24:51 10° NNW 10:28:35 67° W 10:32:23 10° S
Envisat 4.5 10:24:15 10° S 10:28:56 39° W 10:33:38 10° NNW
CZ-3B R/B 3.6 10:33:13 10° NNW 10:35:21 12° N 10:35:34 12° NNE
Cosmos 883 Rocket 4.4 10:30:08 10° N 10:36:18 65° E 10:42:24 10° SSE
Iridium 4 Rocket 4.3 10:32:24 10° SSE 10:37:34 33° E 10:37:55 33° E
Meteor 2-8 Rocket 4.5 10:31:46 10° N 10:37:39 54° E 10:43:34 10° SSE
ATLAS CENTAUR R/B 3.8 10:36:45 10° SE 10:37:47 13° SE 10:37:47 13° SE
CZ-4 R/B 2.3 10:35:48 10° S 10:39:36 47° W 10:43:20 10° NNW
STARLINK 1050 3.5 10:35:56 10° SW 10:39:36 67° NW 10:40:31 46° N
Cosmos 2315 Rocket 4.0 10:34:52 10° N 10:40:55 53° E 10:46:56 10° SSE
STARLINK 1055 3.7 10:39:38 10° SW 10:43:17 59° NW 10:44:02 46° N
STARLINK 1022 3.9 10:43:40 10° SW 10:47:16 51° NW 10:47:54 45° NNW
STARLINK 1042 4.1 10:47:00 10° SW 10:50:34 45° NW 10:51:03 42° NNW
STARLINK 1056 4.3 10:50:47 10° SW 10:54:17 40° NW 10:54:38 39° NW
Cosmos 968 Rocket 4.1 10:49:30 10° S 10:53:44 39° ESE 10:53:44 39° ESE
ATLAS 3B CENTAUR R/B 3.8 10:48:54 10° W 10:54:47 44° NNW 11:00:02 29° NE
ARIANE 5 DEB (SYLDA) 4.1 10:46:48 10° W 10:56:50 35° SSW 10:58:43 25° SSE
Cosmos 1975 Rocket 3.3 10:55:53 10° SSW 11:00:08 64° W 11:01:16 45° NNW
SWIFT 3.0 10:56:48 10° WNW 11:00:01 46° NW 11:00:01 46° NW
Cosmos 2369 Rocket 2.1 10:56:21 10° NNW 11:02:01 89° ENE 11:07:43 10° SSE
Ariane H10-3 4.3 10:59:07 10° W 11:03:43 74° S 11:13:51 28° E
ADEOS Rocket 3.4 11:01:44 16° N 11:06:09 56° WNW 11:12:04 10° SSW
YAOGAN 1 4.5 11:03:25 10° SSW 11:07:11 29° W 11:10:57 10° NW
GPS 2-17 Rocket1 3.8 11:03:49 10° W 11:07:26 42° NW 11:07:26 42° NW
Cosmos 1809 Rocket 4.2 11:02:34 10° S 11:08:39 80° E 11:09:58 57° NNE
Ariane Rocket 3.5 11:07:02 10° SSE 11:10:32 45° SSE 11:10:32 45° SSE
BREEZE-M DEB (TANK) 4.2 11:09:58 10° NW 11:13:36 63° SW 11:25:26 10° SSE
SL-08 R/B 4.4 11:09:00 10° S 11:15:06 79° W 11:17:09 44° N
Cosmos 1943 Rocket 3.1 11:12:14 10° NNW 11:17:31 46° WSW 11:22:46 10° S
Centaur D-1AR AC-36 3.8 11:13:46 10° WNW 11:20:09 24° NNW 11:20:09 24° NNW
BLOCK DM-SL R/B 3.5 11:18:19 10° W 11:33:36 36° SSW 11:34:37 33° S
Cosmos 1745 Rocket 4.2 11:31:32 10° S 11:37:51 69° W 11:37:51 69° W
